| time (UTC) | temp F | wind direction | speed knots | gust knots | rain 1hr in | rain 24hr in | rain mn in | humidity % | barometer mb |
| 20260504202708 | 63 | 274 | 7.0 | 16.5 | 0.00 | 0.00 | 0.00 | 45 | |
| 20260504202208 | 63 | 313 | 4.3 | 11.3 | 0.00 | 0.00 | 0.00 | 43 | |
| 20260504201708 | 63 | 310 | 5.2 | 20.0 | 0.00 | 0.00 | 0.00 | 43 | |
| 20260504201208 | 64 | 358 | 1.7 | 9.6 | 0.00 | 0.00 | 0.00 | 43 | |
| 20260504200708 | 64 | 298 | 4.3 | 17.4 | 0.00 | 0.00 | 0.00 | 42 | |
| 20260504200208 | 64 | 295 | 7.8 | 13.0 | 0.00 | 0.00 | 0.00 | 41 | |
| 20260504195708 | 64 | 322 | 4.3 | 17.4 | 0.00 | 0.00 | 0.00 | 41 | |
| 20260504195208 | 64 | 288 | 10.4 | 18.2 | 0.00 | 0.00 | 0.00 | 41 | |
| 20260504194708 | 64 | 260 | 13.9 | 15.6 | 0.00 | 0.00 | 0.00 | 41 | |
| 20260504194208 | 64 | 312 | 5.2 | 18.2 | 0.00 | 0.00 | 0.00 | 42 | |
| 20260504193708 | 64 | 317 | 3.5 | 16.5 | 0.00 | 0.00 | 0.00 | 42 | |
| 20260504193208 | 64 | 319 | 5.2 | 15.6 | 0.00 | 0.00 | 0.00 | 42 | |
| 20260504192708 | 64 | 229 | 4.3 | 13.0 | 0.00 | 0.00 | 0.00 | 43 | |
| 20260504192208 | 64 | 250 | 5.2 | 17.4 | 0.00 | 0.00 | 0.00 | 43 | |
| 20260504191708 | 63 | 302 | 8.7 | 19.1 | 0.00 | 0.00 | 0.00 | 43 | |
| 20260504191208 | 64 | 289 | 6.1 | 16.5 | 0.00 | 0.00 | 0.00 | 43 | |
| 20260504190708 | 64 | 315 | 2.6 | 12.2 | 0.00 | 0.00 | 0.00 | 44 | |
| 20260504190208 | 63 | 288 | 4.3 | 14.8 | 0.00 | 0.00 | 0.00 | 44 | |
| 20260504185708 | 63 | 309 | 1.7 | 20.9 | 0.00 | 0.00 | 0.00 | 43 | |
| 20260504185208 | 64 | 222 | 7.8 | 14.8 | 0.00 | 0.00 | 0.00 | 45 | |
| 20260504184708 | 64 | 309 | 2.6 | 15.6 | 0.00 | 0.00 | 0.00 | 46 | |
| 20260504184208 | 63 | 313 | 7.8 | 19.1 | 0.00 | 0.00 | 0.00 | 45 | |
| 20260504183708 | 63 | 319 | 4.3 | 18.2 | 0.00 | 0.00 | 0.00 | 45 | |
| 20260504183208 | 63 | 299 | 11.3 | 18.2 | 0.00 | 0.00 | 0.00 | 45 | |
| 20260504182708 | 62 | 302 | 10.4 | 16.5 | 0.00 | 0.00 | 0.00 | 47 | |
| 20260504182208 | 62 | 232 | 2.6 | 18.2 | 0.00 | 0.00 | 0.00 | 47 | |
| 20260504181708 | 62 | 293 | 11.3 | 13.0 | 0.00 | 0.00 | 0.00 | 48 | |
| 20260504181208 | 62 | 285 | 4.3 | 12.2 | 0.00 | 0.00 | 0.00 | 48 | |
| 20260504180708 | 62 | 300 | 5.2 | 16.5 | 0.00 | 0.00 | 0.00 | 49 | |
| 20260504180208 | 61 | 319 | 7.0 | 16.5 | 0.00 | 0.00 | 0.00 | 49 | |
| 20260504175708 | 61 | 296 | 4.3 | 18.2 | 0.00 | 0.00 | 0.00 | 49 | |
| 20260504175208 | 61 | 299 | 7.0 | 20.9 | 0.00 | 0.00 | 0.00 | 48 | |
| 20260504174708 | 61 | 267 | 5.2 | 14.8 | 0.00 | 0.00 | 0.00 | 50 | |
| 20260504174208 | 61 | 281 | 2.6 | 16.5 | 0.00 | 0.00 | 0.00 | 51 | |
| 20260504173708 | 61 | 293 | 4.3 | 18.2 | 0.00 | 0.00 | 0.00 | 50 | |
| 20260504173208 | 60 | 288 | 4.3 | 18.2 | 0.00 | 0.00 | 0.00 | 52 | |
| 20260504172708 | 60 | 268 | 7.0 | 14.8 | 0.00 | 0.00 | 0.00 | 52 | |
| 20260504172209 | 60 | 278 | 7.8 | 16.5 | 0.00 | 0.00 | 0.00 | 51 | |
| 20260504171708 | 60 | 274 | 7.8 | 13.0 | 0.00 | 0.00 | 0.00 | 52 | |
| 20260504171208 | 60 | 289 | 6.1 | 10.4 | 0.00 | 0.00 | 0.00 | 53 | |
| 20260504170708 | 59 | 309 | 1.7 | 13.0 | 0.00 | 0.00 | 0.00 | 52 | |
| 20260504170208 | 59 | 209 | 0.0 | 13.0 | 0.00 | 0.00 | 0.00 | 53 | |
| 20260504160209 | 59 | 285 | 1.7 | 14.8 | 0.00 | 0.00 | 0.00 | 47 | |
| 20260504150709 | 58 | 310 | 3.5 | 14.8 | 0.00 | 0.00 | 0.00 | 48 | |
| 20260504150209 | 57 | 288 | 7.0 | 20.9 | 0.00 | 0.00 | 0.00 | 49 | |
| 20260504141209 | 56 | 302 | 7.0 | 15.6 | 0.00 | 0.00 | 0.00 | 47 | |
| 20260504140709 | 56 | 306 | 6.1 | 14.8 | 0.00 | 0.00 | 0.00 | 48 | |
| 20260504140209 | 56 | 215 | 2.6 | 13.9 | 0.00 | 0.00 | 0.00 | 47 | |
| 20260504130709 | 53 | 244 | 0.9 | 12.2 | 0.00 | 0.00 | 0.00 | 48 | |
| 20260504130209 | 53 | 271 | 6.1 | 12.2 | 0.00 | 0.00 | 0.00 | 49 | |
| 20260504120209 | 49 | 295 | 1.7 | 13.0 | 0.00 | 0.00 | 0.00 | 54 | |
| 20260504110709 | 47 | 312 | 4.3 | 12.2 | 0.00 | 0.00 | 0.00 | 56 | |
| 20260504110210 | 47 | 270 | 3.5 | 10.4 | 0.00 | 0.00 | 0.00 | 56 | |
| 20260504100210 | 47 | 268 | 0.9 | 10.4 | 0.00 | 0.00 | 0.00 | 59 | |
| 20260504081710 | 46 | 267 | 2.6 | 16.5 | 0.00 | 0.00 | 0.00 | 62 | |
| 20260504081210 | 46 | 254 | 6.1 | 7.8 | 0.00 | 0.00 | 0.00 | 62 | |
| 20260504080710 | 46 | 300 | 4.3 | 9.6 | 0.00 | 0.00 | 0.00 | 61 | |
| 20260504080210 | 46 | 312 | 2.6 | 11.3 | 0.00 | 0.00 | 0.00 | 60 | |
| 20260504070210 | 46 | 296 | 5.2 | 10.4 | 0.00 | 0.00 | 0.00 | 50 | |
| 20260504060210 | 46 | 265 | 5.2 | 12.2 | 0.00 | 0.00 | 0.00 | 47 | |
| 20260504050711 | 47 | 296 | 2.6 | 10.4 | 0.00 | 0.00 | 0.00 | 46 | |
| 20260504050211 | 47 | 315 | 2.6 | 13.0 | 0.00 | 0.00 | 0.00 | 46 | |
| 20260504045711 | 47 | 299 | 2.6 | 8.7 | 0.00 | 0.00 | 0.00 | 46 | |
| 20260504045211 | 47 | 267 | 3.5 | 7.8 | 0.00 | 0.00 | 0.00 | 46 | |
| 20260504044711 | 47 | 257 | 5.2 | 7.8 | 0.00 | 0.00 | 0.00 | 46 | |
| 20260504044211 | 47 | 246 | 1.7 | 10.4 | 0.00 | 0.00 | 0.00 | 46 | |
| 20260504043711 | 47 | 240 | 9.6 | 14.8 | 0.00 | 0.00 | 0.00 | 46 | |
| 20260504043211 | 47 | 299 | 1.7 | 7.8 | 0.00 | 0.00 | 0.00 | 46 | |
| 20260504042711 | 47 | 306 | 1.7 | 7.0 | 0.00 | 0.00 | 0.00 | 46 | |
| 20260504042211 | 47 | 255 | 1.7 | 7.0 | 0.00 | 0.00 | 0.00 | 46 | |
| 20260504041711 | 47 | 340 | 0.0 | 4.3 | 0.00 | 0.00 | 0.00 | 46 | |
| 20260504041211 | 47 | 286 | 2.6 | 4.3 | 0.00 | 0.00 | 0.00 | 47 | |
| 20260504040711 | 47 | 248 | 3.5 | 7.8 | 0.00 | 0.00 | 0.00 | 46 | |
| 20260504040211 | 47 | 292 | 0.0 | 7.0 | 0.00 | 0.00 | 0.00 | 46 | |
| 20260504035711 | 47 | 322 | 0.9 | 7.0 | 0.00 | 0.00 | 0.00 | 46 | |
| 20260504035211 | 47 | 270 | 1.7 | 8.7 | 0.00 | 0.00 | 0.00 | 46 | |
| 20260504034711 | 47 | 291 | 2.6 | 9.6 | 0.00 | 0.00 | 0.00 | 46 | |
| 20260504034211 | 47 | 299 | 3.5 | 8.7 | 0.00 | 0.00 | 0.00 | 46 | |
| 20260504033711 | 47 | 247 | 3.5 | 7.8 | 0.00 | 0.00 | 0.00 | 46 | |
| 20260504033211 | 47 | 316 | 0.9 | 8.7 | 0.00 | 0.00 | 0.00 | 46 | |
| 20260504032711 | 47 | 320 | 0.9 | 6.1 | 0.00 | 0.00 | 0.00 | 46 | |
| 20260504032211 | 47 | 305 | 3.5 | 7.8 | 0.00 | 0.00 | 0.00 | 46 | |
| 20260504031711 | 47 | 270 | 4.3 | 8.7 | 0.00 | 0.00 | 0.00 | 46 | |
| 20260504031211 | 47 | 298 | 0.0 | 8.7 | 0.00 | 0.00 | 0.00 | 45 | |
| 20260504030711 | 47 | 286 | 1.7 | 7.8 | 0.00 | 0.00 | 0.00 | 46 | |
| 20260504030211 | 47 | 291 | 0.0 | 7.0 | 0.00 | 0.00 | 0.00 | 45 | |
| 20260504025711 | 47 | 257 | 2.6 | 8.7 | 0.00 | 0.00 | 0.00 | 46 | |
| 20260504025211 | 47 | 271 | 1.7 | 7.0 | 0.00 | 0.00 | 0.00 | 46 | |
| 20260504024711 | 47 | 292 | 1.7 | 11.3 | 0.00 | 0.00 | 0.00 | 46 | |
| 20260504024211 | 47 | 288 | 4.3 | 10.4 | 0.00 | 0.00 | 0.00 | 46 | |
| 20260504023711 | 47 | 261 | 1.7 | 5.2 | 0.00 | 0.00 | 0.00 | 46 | |
| 20260504023211 | 47 | 300 | 2.6 | 7.0 | 0.00 | 0.00 | 0.00 | 46 | |
| 20260504022711 | 47 | 7 | 2.6 | 7.0 | 0.00 | 0.00 | 0.00 | 46 | |
| 20260504022211 | 47 | 320 | 1.7 | 7.0 | 0.00 | 0.00 | 0.00 | 46 | |
| 20260504021711 | 47 | 260 | 0.9 | 8.7 | 0.00 | 0.00 | 0.00 | 46 | |
| 20260504021211 | 47 | 295 | 3.5 | 8.7 | 0.00 | 0.00 | 0.00 | 46 | |
| 20260504020711 | 47 | 285 | 3.5 | 7.8 | 0.00 | 0.00 | 0.00 | 46 | |
| 20260504020211 | 47 | 303 | 3.5 | 11.3 | 0.00 | 0.00 | 0.00 | 45 | |
| 20260504015711 | 47 | 274 | 2.6 | 7.0 | 0.00 | 0.00 | 0.00 | 45 | |
| 20260504015213 | 47 | 299 | 0.9 | 7.8 | 0.00 | 0.00 | 0.00 | 46 | |
| 20260504014711 | 47 | 286 | 3.5 | 7.0 | 0.00 | 0.00 | 0.00 | 45 | |
| 20260504014211 | 47 | 296 | 4.3 | 8.7 | 0.00 | 0.00 | 0.00 | 45 | |
| 20260504013711 | 47 | 257 | 6.1 | 7.8 | 0.00 | 0.00 | 0.00 | 45 | |
| 20260504013211 | 47 | 291 | 5.2 | 9.6 | 0.00 | 0.00 | 0.00 | 45 | |
| 20260504012711 | 46 | 285 | 7.8 | 8.7 | 0.00 | 0.00 | 0.00 | 46 | |
| 20260504012211 | 47 | 253 | 5.2 | 9.6 | 0.00 | 0.00 | 0.00 | 45 | |
| 20260504011711 | 47 | 310 | 3.5 | 8.7 | 0.00 | 0.00 | 0.00 | 45 | |
| 20260504011211 | 46 | 326 | 2.6 | 7.0 | 0.00 | 0.00 | 0.00 | 45 | |
| 20260504010711 | 47 | 306 | 2.6 | 7.0 | 0.00 | 0.00 | 0.00 | 45 | |
| 20260504010211 | 47 | 322 | 4.3 | 7.0 | 0.00 | 0.00 | 0.00 | 44 | |
| 20260504005711 | 47 | 291 | 3.5 | 8.7 | 0.00 | 0.00 | 0.00 | 44 | |
| 20260504005211 | 47 | 206 | 3.5 | 8.7 | 0.00 | 0.00 | 0.00 | 44 | |
| 20260504004711 | 47 | 344 | 6.1 | 6.1 | 0.00 | 0.00 | 0.00 | 44 | |
| 20260504004211 | 47 | 288 | 4.3 | 7.8 | 0.00 | 0.00 | 0.00 | 44 | |
| 20260504003711 | 47 | 285 | 2.6 | 6.1 | 0.00 | 0.00 | 0.00 | 44 | |
| 20260504003211 | 47 | 285 | 2.6 | 6.1 | 0.00 | 0.00 | 0.00 | 44 | |
| 20260504002711 | 47 | 296 | 2.6 | 7.8 | 0.00 | 0.00 | 0.00 | 43 | |
| 20260504002211 | 48 | 322 | 4.3 | 7.8 | 0.00 | 0.00 | 0.00 | 43 | |
| 20260504001711 | 48 | 262 | 6.1 | 7.0 | 0.00 | 0.00 | 0.00 | 42 | |
| 20260504001212 | 48 | 289 | 1.7 | 8.7 | 0.00 | 0.00 | 0.00 | 42 | |
| 20260504000712 | 48 | 296 | 3.5 | 5.2 | 0.00 | 0.00 | 0.00 | 41 | |
| 20260504000212 | 48 | 322 | 2.6 | 7.0 | 0.00 | 0.00 | 0.00 | 41 | |
| 20260503235712 | 48 | 344 | 1.7 | 9.6 | 0.00 | 0.00 | 0.00 | 40 | |
| 20260503235212 | 49 | 298 | 5.2 | 8.7 | 0.00 | 0.00 | 0.00 | 40 | |
| 20260503234712 | 49 | 265 | 5.2 | 9.6 | 0.00 | 0.00 | 0.00 | 39 | |
| 20260503234212 | 50 | 274 | 5.2 | 9.6 | 0.00 | 0.00 | 0.00 | 39 | |
| 20260503233712 | 50 | 306 | 5.2 | 7.8 | 0.00 | 0.00 | 0.00 | 39 | |
| 20260503233212 | 50 | 299 | 4.3 | 12.2 | 0.00 | 0.00 | 0.00 | 37 | |
| 20260503232712 | 51 | 309 | 3.5 | 6.1 | 0.00 | 0.00 | 0.00 | 38 | |
| 20260503232212 | 51 | 307 | 4.3 | 8.7 | 0.00 | 0.00 | 0.00 | 38 | |
| 20260503231712 | 51 | 320 | 5.2 | 8.7 | 0.00 | 0.00 | 0.00 | 38 | |
| 20260503231212 | 51 | 306 | 3.5 | 7.8 | 0.00 | 0.00 | 0.00 | 37 | |
| 20260503230712 | 51 | 215 | 1.7 | 9.6 | 0.00 | 0.00 | 0.00 | 37 | |
| 20260503230212 | 51 | 272 | 4.3 | 10.4 | 0.00 | 0.00 | 0.00 | 37 | |
| 20260503225712 | 51 | 302 | 1.7 | 11.3 | 0.00 | 0.00 | 0.00 | 38 | |
| 20260503225212 | 51 | 319 | 7.0 | 10.4 | 0.00 | 0.00 | 0.00 | 36 | |
| 20260503224712 | 51 | 286 | 5.2 | 10.4 | 0.00 | 0.00 | 0.00 | 37 | |
| 20260503224212 | 51 | 257 | 2.6 | 8.7 | 0.00 | 0.00 | 0.00 | 38 | |
| 20260503223712 | 51 | 331 | 7.0 | 9.6 | 0.00 | 0.00 | 0.00 | 38 | |
| 20260503223212 | 51 | 298 | 6.1 | 10.4 | 0.00 | 0.00 | 0.00 | 37 | |
| 20260503222712 | 51 | 299 | 6.1 | 11.3 | 0.00 | 0.00 | 0.00 | 38 | |
| 20260503222212 | 51 | 284 | 5.2 | 11.3 | 0.00 | 0.00 | 0.00 | 37 | |
| 20260503221712 | 51 | 268 | 3.5 | 9.6 | 0.00 | 0.00 | 0.00 | 38 | |
| 20260503221212 | 51 | 288 | 0.9 | 10.4 | 0.00 | 0.00 | 0.00 | 39 | |
| 20260503220712 | 51 | 324 | 6.1 | 11.3 | 0.00 | 0.00 | 0.00 | 38 | |
| 20260503220212 | 51 | 306 | 2.6 | 7.8 | 0.00 | 0.00 | 0.00 | 38 | |
| 20260503215712 | 51 | 300 | 2.6 | 11.3 | 0.00 | 0.00 | 0.00 | 37 | |
| 20260503215212 | 51 | 296 | 4.3 | 13.9 | 0.00 | 0.00 | 0.00 | 37 | |
| 20260503214712 | 50 | 307 | 4.3 | 11.3 | 0.00 | 0.00 | 0.00 | 36 | |
| 20260503214212 | 51 | 272 | 5.2 | 7.0 | 0.00 | 0.00 | 0.00 | 38 | |
| 20260503213712 | 51 | 306 | 4.3 | 10.4 | 0.00 | 0.00 | 0.00 | 38 | |
| 20260503213212 | 51 | 322 | 4.3 | 10.4 | 0.00 | 0.00 | 0.00 | 37 | |
| 20260503212712 | 51 | 319 | 3.5 | 8.7 | 0.00 | 0.00 | 0.00 | 39 | |
| 20260503212212 | 50 | 337 | 3.5 | 8.7 | 0.00 | 0.00 | 0.00 | 39 | |
| 20260503211712 | 51 | 324 | 3.5 | 9.6 | 0.00 | 0.00 | 0.00 | 39 | |
| 20260503211212 | 51 | 255 | 7.0 | 11.3 | 0.00 | 0.00 | 0.00 | 37 | |
| 20260503210712 | 51 | 307 | 7.8 | 11.3 | 0.00 | 0.00 | 0.00 | 38 | |
| 20260503210212 | 50 | 253 | 2.6 | 10.4 | 0.00 | 0.00 | 0.00 | 39 | |
| 20260503205712 | 50 | 303 | 6.1 | 12.2 | 0.00 | 0.00 | 0.00 | 40 | |
| 20260503205212 | 50 | 223 | 4.3 | 10.4 | 0.00 | 0.00 | 0.00 | 39 | |
| 20260503204712 | 50 | 278 | 7.8 | 10.4 | 0.00 | 0.00 | 0.00 | 40 | |
| 20260503204212 | 50 | 274 | 4.3 | 11.3 | 0.00 | 0.00 | 0.00 | 39 | |
| 20260503203712 | 50 | 250 | 5.2 | 12.2 | 0.00 | 0.00 | 0.00 | 39 | |
| 20260503203212 | 50 | 240 | 7.0 | 9.6 | 0.00 | 0.00 | 0.00 | 40 |